Regional Weather Roundup
Issued by NWS Jackson, KY

Home | Current Version | Previous Version | Graphics & Text | Print | Product List | Glossary Off
Versions: 1 2 3 4 5 6 7 8 9 10 11 12 13 14 15 16 17 18 19 20 21 22 23 24 25 26 27 28 29 30 31 32 33 34 35 36 37 38 39 40 41 42 43 44 45 46 47 48 49 50

000
ASUS43 KJKL 301510
RWRJKL

EAST KENTUCKY HOURLY WEATHER ROUNDUP
NATIONAL WEATHER SERVICE JACKSON KY
1100 AM EDT SAT JUL 30 2016

NOTE: "FAIR" INDICATES FEW OR NO CLOUDS BELOW 12,000 FEET WITH
NO SIGNIFICANT WEATHER AND/OR OBSTRUCTIONS TO VISIBILITY.

* THESE REPORTS ARE NOT UNDER NWS QUALITY CONTROL AND MAY NOT
  REPORT WEATHER SUCH AS PRECIPITATION AND FOG.

KYZ079-080-083-085-087-088-110-112-115-119-120-301600
...EASTERN KENTUCKY...

CITY           SKY/WX    TMP DP  RH WIND       PRES   REMARKS
JACKSON        CLOUDY    74  70  87 VRB5      30.04R
LONDON         CLOUDY    76  69  79 SW6       30.05R
SOMERSET*      CLOUDY    73  72  94 W7        30.05R
MONTICELLO*    CLOUDY   N/A N/A N/A NW10      30.06R
WILLIAMSBURG*  PTSUNNY   77  75  94 W3        30.05R
MIDDLESBORO*   CLOUDY    76  72  88 S5        30.06S
HARLAN APT*    CLOUDY    73  68  83 CALM      30.07S
PIKE CO APT*   CLOUDY    73  72  96 S3        30.04S
MOREHEAD APT*  CLOUDY    77  72  83 SW7       30.03R
ASHLAND*       CLOUDY    79  72  78 W6        29.97R
$$

KYZ035-036-041-042-044-050-067-078-099-301600
...CENTRAL KENTUCKY...

CITY           SKY/WX    TMP DP  RH WIND       PRES   REMARKS
MT STERLING*   CLOUDY    77  72  83 W7        30.03R
FLEMING/MASON* CLOUDY    75  71  87 W7        30.02R
DANVILLE*      MOSUNNY   79  70  73 W8        30.03R
LEXINGTON      CLOUDY    78  71  79 W7        30.02R
FRANKFORT      PTSUNNY   78  72  81 SW6       30.00R
LOUISVILLE     MOSUNNY   81  70  69 CALM      29.98F
GLASGOW*       CLOUDY    76  73  91 W5        30.02R
BOWLING GREEN  CLOUDY    78  71  79 SW8       30.01S
$$

KYZ091>093-OHZ055-061-077-WVZ005-015-034-035-042-301600
...SOUTHERN OHIO/WEST VIRGINIA...

CITY           SKY/WX    TMP DP  RH WIND       PRES   REMARKS
COVINGTON      CLOUDY    76  71  85 W3        29.99S
COLUMBUS       PTSUNNY   77  69  76 SW6       29.96R
DAYTON         PTSUNNY   75  69  81 W6        29.99R
WILMINGTON     CLOUDY    73  70  90 W7        29.99R FOG
HUNTINGTON     CLOUDY    77  71  82 W7        29.99R
CHARLESTON     CLOUDY    76  69  79 SW5       30.00S
PINEVILLE*     CLOUDY    74  67  79 MISG      30.11S
BECKLEY        PTSUNNY   73  68  84 SW9       30.10R
BLUEFIELD      PTSUNNY   73  67  81 W8        30.13R
LOGAN CO APT*  CLOUDY    73  70  88 CALM      30.04R
$$

VAZ002-007-008-TNZ017-027-036-066-071-301600
...SOUTHWEST VIRGINIA/EAST TENNESSEE...

CITY           SKY/WX    TMP DP  RH WIND       PRES   REMARKS
WISE*          CLOUDY    73  70  88 SW8       30.13F
JONESVILLE*    PTSUNNY   73  72  94 CALM      30.09S
ABINGDON*      PTSUNNY   74  72  94 W7        30.11S
BRISTOL        CLOUDY    74  70  87 CALM      30.09R
SEVIERVILLE*   SUNNY     79  70  73 S3        30.05F
KNOXVILLE      CLOUDY    78  72  81 VRB5      30.04F
OAK RIDGE      MOSUNNY   82  71  69 W6        30.05S
CROSSVILLE     MOSUNNY   77  68  73 W9        30.09S
NASHVILLE      PTSUNNY   80  70  71 VRB5      30.03R
$$

...KEY TO REMARKS...
VSB - VISIBILITY IN MILES
WCI - WIND CHILL INDEX
HX  - HEAT INDEX

$$



USA.gov is the U.S. government's official web portal to all federal, state and local government web resources and services.